User: anonymous   Login
Location: Saint-Palais-sur-Mer
(45.6429°N, 1.0859°W)
Time: 21:59:37
(UTC+02:00)
Language:

SPROUT - Orbit

View from above orbital plane
View from above orbital plane
View from above satellite
View from above satellite

Ground track
Ground track

The orbit data is extracted from the following two-line orbital elements,

1 39770U 14029E   24113.37084849  .00164764  00000-0  52423-2 0  9992
2 39770  98.0087 260.7587 0005221 299.2160  60.8557 15.31888496539061
Epoch (UTC): 22 April 2024 08:54:01
Eccentricity: 0.0005221
inclination: 98.0087°
perigee height: 466 km
apogee height: 474 km
right ascension of ascending node: 260.7587°
argument of perigee: 299.2160°
revolutions per day: 15.31888496
mean anomaly at epoch: 60.8557°
orbit number at epoch: 53906

The dashed part of the orbit path shows where the satellite is in the earth's shadow,  

DLR